User: anonymous   Login
Location: Unspecified
(0.0000°N, 0.0000°E)
Time: 07:23:46
(UTC+00:00)
Language:

UFO 9 - Orbit

View from above orbital plane
View from above orbital plane
View from above satellite
View from above satellite

Ground track
Ground track

The orbit data is extracted from the following two-line orbital elements,

1 25501U 98058A   17283.80569243 0.00000000  00000-0  00000-0 0    04
2 25501   8.0672  33.3205 0013424 306.4575  53.4309  0.98172834    04
Epoch (UTC): 10 October 2017 19:20:11
Eccentricity: 0.0013424
inclination: 8.0672°
perigee height: 36327 km
apogee height: 36442 km
right ascension of ascending node: 33.3205°
argument of perigee: 306.4575°
revolutions per day: 0.98172834
mean anomaly at epoch: 53.4309°
orbit number at epoch: 0

The dashed part of the orbit path shows where the satellite is in the earth's shadow,  

DLR